SCP
0 0 0 0 0 0 0 0 0 0 0 0 0 0 0 0 0 0 0 0 0 0 0 0 0 0 0 0 0 0 0 0 0 0 0 0 0 0 0 0 0 0 0 0 0 0 0 0 0 0 0 0 0 0
0 0 0 0 0 0 0 0 0 0 0 0 0 0 0 0 0 0 0 0 0 0 0 0 0 0 0 0 0 0 0 0 0 0 0 0 0 0 0 0 0 0 0 0 0 0 0 0 0 0 0 0 0 0
0 0 0 0 0 0 0 0 0 0 0 0 0 0 0 0 0 0 0 0 0 0 0 0 0 0 0 0 0 0 0 0 0 0 1 1 1 0 0 0 0 0 0 0 0 0 0 0 0 0 0 0 0 0
0 0 0 0 0 0 0 0 0 0 0 0 0 0 0 0 0 0 0 0 0 0 0 0 0 0 0 0 0 0 0 0 0 0 0 1 1 0 0 0 0 0 0 0 0 0 0 0 0 0 0 0 0 0
0 0 0 0 0 0 0 0 0 0 0 0 0 0 0 0 0 0 0 0 0 0 0 0 0 0 0 0 0 0 0 0 0 0 0 0 0 0 0 0 0 0 0 0 0 0 0 0 0 0 0 0 0 0
0 0 0 0 0 0 0 0 0 0 0 0 0 0 0 0 0 0 0 0 0 0 0 0 0 0 0 0 0 0 0 0 0 0 0 0 0 0 0 0 0 0 0 0 0 0 0 0 0 0 0 0 0 0
0 0 0 0 0 0 0 0 0 0 0 0 0 0 0 0 0 0 0 0 0 0 0 0 0 0 0 0 0 0 0 0 0 0 0 0 0 0 1 0 0 0 0 0 0 0 0 0 0 0 0 0 0 0
0 0 0 0 0 0 0 0 0 0 0 0 0 0 0 0 0 0 -0 0 0 0 0 0 0 0 0 0 0 0 0 0 0 0 0 0 0 0 0 0 0 0 0 0 0 0 0 0 0 0 0 0 0 0
-0 0 0 0 0 0 0 0 0 0 0 -0 0 0 0 0 0 0 0 0 0 0 0 0 0 -0 0 0 0 0 0 0 0 0 0 0 0 0 0 0 0 0 0 0 0 0 0 0 0 0 0 0 0 0
0 0 0 0 0 0 0 0 0 0 0 0 0 0 0 0 0 0 0 0 0 -0 -0 0 0 -0 -0 -0 0 0 0 0 0 0 0 0 0 0 0 0 0 0 0 0 0 0 0 0 0 0 0 0 0 0
0 0 0 0 0 0 0 0 0 0 0 0 0 0 0 0 0 0 0 0 0 -0 -0 0 -0 0 -0 0 0 0 0 0 0 0 0 0 0 0 0 0 0 0 0 0 0 0 0 0 0 0 0 0 0 0
0 0 0 0 0 0 0 -0 -0 0 0 0 0 0 0 0 0 0 0 0 0 -0 -0 -0 -0 -0 0 0 0 0 0 0 0 0 0 0 0 0 0 0 0 0 0 0 0 0 0 0 0 0 0 0 0 0
0 0 0 0 0 -0 -0 -0 -0 0 0 0 0 0 0 0 0 0 -0 0 0 0 -0 -0 0 0 0 0 0 0 0 0 0 0 0 0 0 0 0 0 0 0 0 0 0 0 0 0 0 0 0 0 0 0
-0 -0 -0 -0 -0 -0 -0 0 0 0 0 0 0 0 0 0 0 0 0 -0 -0 -0 -0 0 0 0 0 0 0 0 0 0 0 0 0 0 0 0 0 0 0 0 0 0 0 0 0 0 0 0 0 0 0 0
0 0 0 0 0 0 0 0 0 0 0 0 0 0 0 0 0 0 -0 0 -0 0 0 0 0 0 0 0 0 0 0 0 0 0 0 0 0 0 0 0 0 0 0 0 0 0 0 0 0 0 0 0 0 0
0 0 0 0 0 0 0 0 0 0 0 0 0 0 0 0 0 0 -0 0 0 0 0 0 0 0 0 0 0 0 0 0 0 0 0 0 0 0 0 0 0 -0 0 0 0 0 0 0 0 0 0 0 0 0
0 0 -0 0 0 0 0 0 0 0 0 0 0 0 0 0 0 0 0 0 0 0 0 0 0 0 0 0 0 0 0 0 0 0 0 0 0 0 -0 -0 0 0 0 0 0 0 0 0 0 0 0 0 0 0
0 0 -0 -0 0 0 0 0 0 0 0 0 -0 0 0 0 0 0 0 0 0 0 0 0 0 0 0 0 0 0 0 0 0 0 0 0 -0 -0 -0 -0 0 0 0 0 0 0 0 0 0 0 0 0 0 0
0 0 0 0 0 0 0 0 0 0 0 0 0 0 0 0 0 0 0 0 0 0 0 0 0 0 0 0 0 0 0 0 0 0 0 -0 -0 -0 -0 -0 -0 0 0 0 0 0 0 0 0 0 0 0 0 0
0 0 0 0 0 0 0 0 0 0 0 0 0 0 0 0 0 0 0 0 0 0 0 0 0 0 0 0 0 0 0 0 0 -0 -0 -0 -0 -0 -0 0 0 0 0 0 0 0 0 0 0 0 0 0 0 0
0 0 0 0 0 0 0 0 0 0 0 0 0 0 0 0 0 0 0 0 0 0 0 0 0 0 0 0 0 0 0 0 -0 -0 -0 -0 -0 -0 0 0 0 0 0 0 0 0 0 0 0 0 0 0 0 0
0 0 0 0 0 0 0 0 0 0 0 0 0 0 0 0 0 0 0 0 0 0 0 0 0 0 0 0 0 0 0 -0 -0 -0 -0 -0 -0 0 0 0 0 -0 0 -0 -0 -0 -0 0 0 0 0 0 0 0
0 0 -0 0 0 0 0 0 0 0 0 0 0 0 0 0 0 0 0 0 0 0 0 0 0 0 0 0 0 0 -0 -0 -0 -0 -0 0 0 0 -0 -0 -0 -0 -0 -0 0 -0 -0 0 0 0 0 0 0 0
0 0 0 0 0 0 0 0 0 0 0 0 0 0 0 0 0 0 0 0 0 0 0 0 0 0 0 0 0 -0 -0 0 -0 0 0 0 0 0 -0 0 -0 -0 -0 -0 -0 0 0 -0 0 0 -0 0 0 0
0 0 0 0 0 0 0 0 0 0 0 0 0 0 0 0 0 0 0 0 0 0 -0 0 0 0 0 0 0 0 0 0 0 0 0 -0 0 -0 0 0 -0 0 0 0 0 0 -0 -0 -0 0 0 0 0 -0
0 0 0 0 0 0 0 0 0 0 0 0 0 0 0 0 0 0 0 0 0 -0 -0 0 0 0 0 0 0 0 0 -0 0 0 0 -0 -0 -0 0 0 0 0 -0 0 -0 -0 -0 -0 0 -0 0 0 0 -0
0 0 0 0 0 0 0 0 0 0 0 0 0 0 0 0 0 0 0 0 0 0 0 0 0 0 -0 -0 0 0 -0 -0 -0 0 -0 -0 -0 -0 -0 0 0 0 -0 -0 0 -0 -0 -0 -0 0 0 0 0 0
0 0 0 0 0 0 0 0 0 0 0 0 0 0 0 0 0 0 0 0 0 0 0 0 0 0 0 0 0 0 0 0 0 -0 -0 0 0 0 0 0 0 0 0 0 0 0 0 0 0 0 0 0 0 0
0 0 0 0 0 0 0 0 0 0 0 0 0 0 0 0 -0 -0 -0 -0 -0 -0 -0 -0 -0 0 0 0 0 0 0 -0 0 -0 0 0 0 0 0 0 0 0 0 0 0 0 0 -0 0 0 0 0 0 0
0 0 0 0 0 0 0 0 -0 0 0 -0 0 0 0 -0 -0 0 0 -0 0 0 0 0 0 0 0 0 0 0 0 0 0 0 0 0 0 0 0 0 0 0 0 0 0 0 0 0 0 0 0 0 -0 0
0 0 0 0 0 -0 -0 -0 -0 -0 -0 0 0 0 0 0 0 -0 -0 -0 0 0 0 0 0 0 0 0 0 0 0 0 0 0 0 0 0 0 0 0 0 0 0 0 0 0 0 0 0 0 0 0 0 0
0 0 -0 -0 -0 0 0 0 0 0 0 0 0 0 0 0 -0 -0 0 0 0 0 0 0 0 0 0 0 0 0 0 0 0 0 0 0 0 0 0 0 0 0 0 0 0 0 0 0 0 0 0 0 0 0
0 0 0 -0 -0 -0 -0 -0 -0 -0 -0 0 0 0 -0 -0 -0 0 0 0 0 0 0 0 0 0 0 0 0 0 0 0 0 0 0 0 0 0 0 0 0 0 0 0 0 0 0 0 0 -0 0 0 0 0
Wind_Speed_500mb
46 41 39 39 38 33 34 36 33 32 32 28 24 26 22 23 31 55 58 44 45 28 41 28 28 44 33 18 17 5 11 21 20 25 28 28 31 29 33 37 33 26 18 23 28 37 37 20 28 24 7 19 30 33
49 48 47 44 41 35 34 36 34 31 29 31 32 33 31 25 25 32 53 61 34 43 24 19 35 51 47 35 31 16 26 20 11 16 26 23 22 25 24 31 26 24 31 21 20 14 5 40 25 30 15 25 29 32
39 39 40 41 43 43 38 38 34 31 28 29 32 31 28 26 24 30 36 38 39 35 43 61 54 54 44 51 48 32 42 36 17 13 17 9 18 24 28 32 26 26 14 17 11 26 19 28 29 25 23 20 26 32
42 42 42 43 43 42 43 38 37 35 31 28 25 26 28 28 31 29 35 41 50 25 14 28 34 40 41 43 57 60 61 50 24 20 10 9 14 11 25 26 27 14 31 27 25 9 16 24 35 29 28 24 33 33
45 45 46 46 46 44 44 41 39 36 36 31 27 25 24 25 28 31 32 42 48 42 8 13 23 37 45 40 50 55 60 56 29 14 10 8 8 3 19 22 21 23 20 23 18 32 31 25 41 34 35 37 38 42
47 49 46 45 48 48 43 43 39 35 36 32 28 26 23 21 21 21 17 39 52 52 20 8 21 46 46 44 41 61 64 41 24 10 14 9 14 11 18 24 22 37 26 32 23 11 22 9 34 37 36 39 40 39
49 45 45 45 40 44 45 41 38 35 33 31 27 27 27 26 31 35 11 12 33 54 20 9 11 20 40 47 42 44 50 29 38 19 13 24 33 9 22 22 19 31 31 27 18 27 17 25 25 37 37 41 41 37
42 41 44 37 36 37 42 39 37 32 32 28 24 25 24 22 32 46 44 16 29 48 20 6 9 10 21 22 15 40 28 30 17 16 7 14 14 21 18 28 21 23 28 31 30 26 16 23 30 40 45 46 44 42
42 37 29 36 36 40 37 36 34 31 28 23 21 18 18 25 24 35 37 46 30 13 9 9 12 14 15 20 16 17 9 5 12 7 10 17 14 15 21 26 32 38 34 28 30 27 25 37 45 46 46 44 41 40
24 29 30 34 38 39 38 37 34 30 25 23 22 12 13 17 27 20 24 22 15 13 15 8 11 8 15 13 3 17 16 10 8 14 20 11 17 26 15 22 30 32 35 30 38 35 35 41 48 45 42 39 37 40
25 28 29 38 36 36 39 37 36 30 28 26 17 15 15 11 27 16 11 17 12 7 19 23 44 21 21 11 10 6 9 11 9 12 12 11 8 21 36 33 27 30 35 34 34 32 38 45 45 42 38 37 37 39
26 28 28 32 34 37 38 41 38 37 22 21 14 13 11 11 13 9 9 10 10 12 19 16 21 34 14 19 13 7 6 9 7 17 9 7 8 20 25 40 32 31 35 38 36 34 38 39 38 40 39 39 39 39
22 26 28 31 34 35 39 40 39 32 24 17 10 8 9 9 9 10 16 8 8 11 17 21 11 20 15 16 6 8 12 6 15 9 7 7 15 21 18 33 35 32 35 35 37 39 39 39 36 36 38 39 42 40
22 25 27 30 31 35 38 36 37 33 18 9 10 9 8 10 11 11 10 4 11 8 15 30 20 12 13 5 3 6 1 7 7 7 8 5 17 19 20 35 42 46 44 43 40 37 36 36 36 37 39 43 42 41
24 24 27 29 32 40 38 37 39 36 15 8 8 8 13 15 23 20 14 14 14 13 28 13 6 6 7 4 2 6 9 7 7 5 3 8 19 26 34 39 42 47 43 39 34 32 34 36 39 40 39 41 41 40
27 27 27 33 35 35 37 37 34 24 7 8 11 8 10 12 22 21 18 23 16 18 27 5 3 7 3 5 7 8 10 7 1 4 11 22 25 29 39 38 38 40 38 34 29 32 35 38 40 41 42 41 39 38
28 13 33 37 38 39 38 27 18 13 8 8 8 15 23 28 29 27 10 17 25 26 0 4 6 4 8 7 8 5 5 2 6 15 22 31 36 38 39 37 34 32 31 30 31 33 34 37 41 45 44 38 35 32
11 18 32 41 46 41 33 19 8 11 9 16 10 9 14 24 22 19 8 15 20 13 8 3 8 9 5 9 5 5 9 14 15 22 34 36 36 35 33 32 29 29 31 32 34 38 41 43 43 40 37 35 32 32
23 35 44 49 47 33 12 15 9 6 13 11 18 23 20 16 10 6 8 23 21 12 10 3 1 2 3 3 3 12 18 20 27 35 38 35 33 34 33 32 32 35 37 38 40 39 39 37 33 32 31 34 32 32
33 44 51 45 30 6 5 7 11 9 7 6 12 17 7 4 1 16 28 33 24 10 9 5 3 6 7 11 7 17 22 31 44 46 39 33 32 33 33 32 32 33 34 35 34 35 34 30 28 29 29 33 31 30
40 40 34 32 12 6 4 7 10 6 7 8 11 7 6 7 15 18 19 24 13 2 3 6 4 8 4 10 16 24 28 29 34 42 45 39 32 30 30 28 31 30 33 34 33 31 30 27 27 28 29 29 26 25
36 35 23 19 11 5 7 9 5 4 6 6 7 5 10 6 8 8 15 5 8 10 5 8 16 20 20 21 23 23 25 29 30 33 32 36 32 30 29 29 29 29 29 30 30 30 28 27 27 29 27 26 24 22
43 34 9 4 5 6 8 8 6 4 1 2 4 5 4 3 6 10 6 7 8 7 9 18 21 27 33 29 26 25 21 23 26 25 27 25 25 25 25 26 26 25 24 24 28 30 30 28 30 28 26 23 22 22
16 14 10 8 12 5 4 5 5 3 4 3 3 5 4 5 7 5 5 6 14 7 16 24 23 26 22 19 17 16 15 16 18 20 22 24 25 24 22 23 24 23 24 26 27 31 32 34 31 30 26 26 25 24
5 6 6 5 6 5 3 3 5 6 3 3 5 6 4 9 4 5 5 11 13 18 21 20 18 16 18 18 16 15 15 12 14 17 18 22 24 24 23 21 20 19 22 24 29 33 36 35 36 33 30 30 30 28
10 17 14 7 10 8 9 5 4 8 7 6 7 9 8 4 5 8 5 18 17 24 25 22 21 18 15 14 14 10 8 8 10 12 18 22 23 24 24 22 20 20 23 24 25 32 36 37 35 35 33 31 34 32
4 8 4 3 3 4 9 11 9 7 7 7 6 4 4 5 6 6 6 7 10 13 17 17 16 13 15 13 12 10 10 11 8 12 18 19 20 19 20 18 15 11 18 22 24 27 32 33 32 30 31 31 31 33
7 13 14 17 17 14 8 7 7 7 6 5 2 4 4 6 6 6 3 2 14 15 19 20 16 11 11 11 10 8 8 10 12 14 15 15 16 18 17 13 11 15 16 18 19 20 22 24 25 25 27 29 28 29
8 8 8 15 13 12 14 10 8 9 8 6 6 7 7 9 9 12 13 14 16 14 13 12 11 14 15 15 11 8 7 8 15 18 18 18 20 18 18 17 12 13 16 15 17 20 20 19 19 21 22 22 23 26
9 12 21 21 10 10 11 12 17 18 23 25 25 29 27 20 14 15 14 15 15 15 13 12 10 8 9 10 10 11 12 13 16 17 16 14 19 19 19 20 17 15 15 13 15 18 20 20 22 18 18 20 26 26
8 19 24 25 19 20 16 14 16 20 21 24 21 23 21 14 11 11 10 10 9 7 6 4 1 4 5 6 7 9 10 12 18 16 10 9 15 18 15 16 15 14 14 17 17 16 16 19 23 21 20 22 21 16
9 10 16 18 19 13 12 13 16 17 15 16 15 12 9 7 6 4 1 2 1 1 4 1 0 2 3 7 8 4 6 9 18 20 13 11 10 9 13 15 17 16 15 16 15 12 13 17 19 20 19 19 21 23
18 20 19 13 8 8 8 8 9 12 12 11 10 9 7 5 5 3 1 1 3 3 5 5 6 5 7 9 11 17 18 16 15 13 12 11 11 12 10 9 10 13 16 18 16 18 16 14 19 23 24 23 23 24
Wind_Direction_500mb
260 260 257 258 255 260 249 255 266 263 259 234 233 244 248 245 228 219 219 220 221 231 250 257 254 252 259 262 269 341 249 225 216 232 233 233 236 217 227 233 214 212 208 223 232 241 241 161 167 206 166 139 160 176
254 255 259 257 250 252 251 252 261 257 245 237 232 240 249 257 236 226 225 216 238 235 251 234 245 245 249 259 270 260 272 307 279 236 231 246 231 237 221 230 196 237 231 240 212 239 117 184 206 202 173 165 172 177
255 252 249 249 250 247 249 247 250 245 242 236 240 245 245 240 229 230 230 220 229 243 271 253 253 251 252 249 238 248 249 263 258 338 324 290 255 227 222 232 207 219 202 222 187 217 204 196 201 203 193 188 180 175
256 254 252 248 247 248 244 243 239 237 233 237 240 239 242 242 229 223 230 222 225 238 258 265 253 249 251 242 237 243 247 248 268 300 276 271 243 269 259 241 218 205 174 214 225 202 193 208 206 203 192 182 168 167
257 256 255 251 246 244 240 236 233 234 230 235 233 234 243 238 231 226 240 226 222 217 263 269 269 254 247 248 240 236 232 233 231 230 210 228 249 342 278 270 209 187 197 203 226 223 212 220 200 190 180 170 167 162
259 258 254 250 250 235 237 229 227 230 227 225 228 229 236 243 227 226 255 235 220 223 248 261 263 256 255 248 250 233 225 215 209 245 212 203 246 258 216 221 203 201 204 216 236 223 198 175 182 183 179 172 166 163
258 255 249 250 233 237 224 220 219 223 221 224 228 228 235 239 213 206 216 185 202 208 222 256 252 247 245 237 250 232 207 208 211 219 285 210 201 258 265 236 182 200 202 198 179 155 159 163 171 179 173 164 158 157
254 252 247 230 228 219 210 208 211 215 214 219 223 228 236 238 230 237 210 186 178 192 224 249 260 259 197 206 212 209 193 178 197 180 185 267 144 208 240 229 181 185 191 196 195 199 211 189 165 163 161 156 153 154
250 235 226 219 212 205 198 203 204 203 204 207 215 218 225 222 225 236 227 221 227 196 170 224 230 243 182 222 217 186 151 126 140 185 200 234 199 211 219 204 198 197 194 198 192 187 183 172 166 162 162 162 160 158
219 216 211 201 199 187 196 198 198 195 191 198 194 195 221 216 208 191 173 196 221 225 220 246 238 235 188 182 235 176 159 154 174 212 174 229 239 223 208 198 204 198 199 191 181 182 179 175 170 168 169 169 169 165
208 197 203 195 181 191 192 190 185 178 185 187 196 220 213 198 191 199 189 193 173 205 209 231 225 221 219 185 225 197 162 168 209 170 208 193 229 215 216 205 194 189 188 190 191 186 181 175 170 165 163 164 165 164
187 177 175 180 186 186 188 183 179 181 185 197 204 218 188 195 202 208 189 167 204 215 190 212 199 197 198 188 222 190 165 205 198 146 195 218 194 194 193 196 187 176 179 185 185 175 172 171 168 160 158 158 160 159
181 178 176 180 182 183 179 179 184 189 192 194 222 217 191 209 234 227 183 189 212 202 199 179 162 171 202 201 166 183 189 143 139 181 215 222 164 170 168 171 170 165 161 156 156 159 160 156 156 158 156 158 159 157
166 170 172 172 173 173 176 185 188 183 184 204 211 198 221 186 237 228 244 225 189 239 187 184 157 204 190 116 200 109 71 149 201 204 227 177 158 149 150 161 157 153 147 146 147 151 155 157 157 157 159 160 159 160
172 173 173 175 177 171 176 185 180 184 189 243 223 233 218 248 287 284 287 267 243 247 172 129 165 162 73 98 207 132 169 200 229 233 101 128 148 151 151 156 156 155 151 150 153 158 160 160 158 156 158 160 162 160
173 169 177 175 174 172 173 170 177 185 222 247 231 258 245 251 263 237 227 234 207 191 147 220 93 86 126 183 183 200 175 207 298 161 118 133 134 138 148 149 152 157 161 160 161 162 161 162 162 158 156 160 162 163
163 164 176 171 161 161 166 158 174 196 235 239 235 240 254 268 265 277 220 209 170 157 110 127 89 120 156 203 190 188 201 110 124 115 135 137 130 127 135 143 148 153 157 160 163 164 164 162 159 155 156 159 163 167
154 153 159 162 161 156 163 187 183 209 238 250 258 263 242 263 278 298 201 173 153 127 167 166 147 188 168 167 177 161 138 118 115 127 135 131 126 123 126 131 138 147 152 154 154 153 156 157 156 156 156 160 164 169
150 151 152 152 155 150 149 190 220 252 246 270 270 273 260 262 291 278 114 141 144 98 103 40 9 62 59 14 359 128 133 133 130 131 131 130 127 127 127 128 130 135 140 145 147 150 153 155 159 161 165 165 166 168
147 149 151 152 152 176 167 184 196 255 265 269 277 283 270 8 29 135 117 117 105 48 38 21 13 350 4 19 88 128 132 137 134 133 133 133 134 134 137 137 137 140 142 144 146 150 154 157 165 167 169 173 176 181
139 148 165 175 203 287 243 209 217 244 268 270 301 317 55 97 128 116 109 109 58 58 156 240 204 226 232 96 103 116 121 135 148 149 147 142 143 143 143 147 146 148 152 154 155 157 161 164 165 168 171 175 181 184
151 153 158 182 216 265 259 235 222 241 226 262 324 56 81 356 57 62 107 84 104 167 190 111 118 115 106 98 105 113 124 134 138 141 145 148 149 152 153 155 157 163 169 172 171 170 169 167 168 169 170 173 179 182
169 185 204 224 231 242 255 209 210 221 199 233 28 62 58 58 71 67 72 17 123 165 100 120 114 115 110 108 111 112 116 122 136 147 153 159 161 161 163 167 170 170 173 180 188 184 183 178 175 176 181 184 187 193
164 177 211 217 205 259 222 205 211 157 175 190 127 108 100 102 78 82 80 142 161 169 140 133 124 116 109 111 109 112 122 137 147 155 168 170 171 174 179 183 188 193 196 193 191 195 193 192 192 195 198 199 199 201
189 204 201 228 227 225 200 193 189 209 88 93 107 96 127 160 137 66 79 115 146 171 155 144 139 133 125 124 121 119 116 130 156 161 170 181 183 180 184 187 193 197 195 196 198 199 199 198 199 202 204 205 206 208
213 194 190 216 190 199 170 142 109 116 118 98 82 127 174 139 101 101 111 161 166 168 163 153 144 133 128 127 126 128 142 128 135 164 180 179 178 181 185 189 193 204 207 201 197 197 197 201 205 209 213 213 216 221
11 42 20 346 13 127 109 87 95 83 73 86 105 126 136 83 79 72 79 90 127 144 161 159 156 150 142 134 120 113 134 141 123 114 138 149 161 169 167 169 175 178 188 187 191 195 198 201 205 210 215 215 218 223
16 20 63 67 74 56 64 54 45 49 61 45 97 58 63 41 75 69 63 153 160 155 161 171 166 151 149 147 143 136 131 157 164 145 150 150 157 163 164 158 160 150 155 163 171 177 183 190 197 208 213 217 225 233
57 31 29 63 71 56 36 29 49 46 11 17 75 65 80 69 83 90 77 95 125 134 146 156 175 191 183 183 178 182 184 185 189 188 189 186 182 185 183 182 178 175 176 193 188 187 198 207 218 219 221 229 236 241
48 40 78 69 66 55 43 53 71 66 69 78 97 106 102 99 86 76 84 101 110 114 123 131 144 164 195 203 216 227 226 214 207 213 204 204 199 189 186 188 190 192 194 201 202 206 201 219 226 229 228 248 245 251
75 86 80 83 82 80 88 81 77 81 82 82 91 102 103 111 99 78 85 91 96 110 125 121 152 225 234 230 221 218 219 218 202 195 174 168 180 181 182 189 198 202 203 205 204 209 221 227 233 243 240 232 244 246
79 97 109 105 97 89 90 81 78 84 86 92 89 96 107 124 99 100 67 43 64 238 267 275 19 172 168 167 155 128 137 165 177 175 176 174 175 198 212 210 215 216 206 203 209 224 241 236 235 233 234 241 250 256
92 103 108 107 107 113 102 94 84 86 86 82 67 58 55 40 71 94 319 175 156 129 121 137 123 125 139 121 133 119 114 128 144 159 171 182 198 184 181 194 205 211 210 218 245 228 237 250 246 246 251 257 259 263
Wind_Speed_850mb
46 41 39 39 38 33 34 36 33 32 32 28 24 26 22 23 31 55 58 44 45 28 41 28 28 44 33 18 17 5 11 21 20 25 28 28 31 29 33 37 33 26 18 23 28 37 37 20 28 24 7 19 30 33
49 48 47 44 41 35 34 36 34 31 29 31 32 33 31 25 25 32 53 61 34 43 24 19 35 51 47 35 31 16 26 20 11 16 26 23 22 25 24 31 26 24 31 21 20 14 5 40 25 30 15 25 29 32
39 39 40 41 43 43 38 38 34 31 28 29 32 31 28 26 24 30 36 38 39 35 43 61 54 54 44 51 48 32 42 36 17 13 17 9 18 24 28 32 26 26 14 17 11 26 19 28 29 25 23 20 26 32
42 42 42 43 43 42 43 38 37 35 31 28 25 26 28 28 31 29 35 41 50 25 14 28 34 40 41 43 57 60 61 50 24 20 10 9 14 11 25 26 27 14 31 27 25 9 16 24 35 29 28 24 33 33
45 45 46 46 46 44 44 41 39 36 36 31 27 25 24 25 28 31 32 42 48 42 8 13 23 37 45 40 50 55 60 56 29 14 10 8 8 3 19 22 21 23 20 23 18 32 31 25 41 34 35 37 38 42
47 49 46 45 48 48 43 43 39 35 36 32 28 26 23 21 21 21 17 39 52 52 20 8 21 46 46 44 41 61 64 41 24 10 14 9 14 11 18 24 22 37 26 32 23 11 22 9 34 37 36 39 40 39
49 45 45 45 40 44 45 41 38 35 33 31 27 27 27 26 31 35 11 12 33 54 20 9 11 20 40 47 42 44 50 29 38 19 13 24 33 9 22 22 19 31 31 27 18 27 17 25 25 37 37 41 41 37
42 41 44 37 36 37 42 39 37 32 32 28 24 25 24 22 32 46 44 16 29 48 20 6 9 10 21 22 15 40 28 30 17 16 7 14 14 21 18 28 21 23 28 31 30 26 16 23 30 40 45 46 44 42
42 37 29 36 36 40 37 36 34 31 28 23 21 18 18 25 24 35 37 46 30 13 9 9 12 14 15 20 16 17 9 5 12 7 10 17 14 15 21 26 32 38 34 28 30 27 25 37 45 46 46 44 41 40
24 29 30 34 38 39 38 37 34 30 25 23 22 12 13 17 27 20 24 22 15 13 15 8 11 8 15 13 3 17 16 10 8 14 20 11 17 26 15 22 30 32 35 30 38 35 35 41 48 45 42 39 37 40
25 28 29 38 36 36 39 37 36 30 28 26 17 15 15 11 27 16 11 17 12 7 19 23 44 21 21 11 10 6 9 11 9 12 12 11 8 21 36 33 27 30 35 34 34 32 38 45 45 42 38 37 37 39
26 28 28 32 34 37 38 41 38 37 22 21 14 13 11 11 13 9 9 10 10 12 19 16 21 34 14 19 13 7 6 9 7 17 9 7 8 20 25 40 32 31 35 38 36 34 38 39 38 40 39 39 39 39
22 26 28 31 34 35 39 40 39 32 24 17 10 8 9 9 9 10 16 8 8 11 17 21 11 20 15 16 6 8 12 6 15 9 7 7 15 21 18 33 35 32 35 35 37 39 39 39 36 36 38 39 42 40
22 25 27 30 31 35 38 36 37 33 18 9 10 9 8 10 11 11 10 4 11 8 15 30 20 12 13 5 3 6 1 7 7 7 8 5 17 19 20 35 42 46 44 43 40 37 36 36 36 37 39 43 42 41
24 24 27 29 32 40 38 37 39 36 15 8 8 8 13 15 23 20 14 14 14 13 28 13 6 6 7 4 2 6 9 7 7 5 3 8 19 26 34 39 42 47 43 39 34 32 34 36 39 40 39 41 41 40
27 27 27 33 35 35 37 37 34 24 7 8 11 8 10 12 22 21 18 23 16 18 27 5 3 7 3 5 7 8 10 7 1 4 11 22 25 29 39 38 38 40 38 34 29 32 35 38 40 41 42 41 39 38
28 13 33 37 38 39 38 27 18 13 8 8 8 15 23 28 29 27 10 17 25 26 0 4 6 4 8 7 8 5 5 2 6 15 22 31 36 38 39 37 34 32 31 30 31 33 34 37 41 45 44 38 35 32
11 18 32 41 46 41 33 19 8 11 9 16 10 9 14 24 22 19 8 15 20 13 8 3 8 9 5 9 5 5 9 14 15 22 34 36 36 35 33 32 29 29 31 32 34 38 41 43 43 40 37 35 32 32
23 35 44 49 47 33 12 15 9 6 13 11 18 23 20 16 10 6 8 23 21 12 10 3 1 2 3 3 3 12 18 20 27 35 38 35 33 34 33 32 32 35 37 38 40 39 39 37 33 32 31 34 32 32
33 44 51 45 30 6 5 7 11 9 7 6 12 17 7 4 1 16 28 33 24 10 9 5 3 6 7 11 7 17 22 31 44 46 39 33 32 33 33 32 32 33 34 35 34 35 34 30 28 29 29 33 31 30
40 40 34 32 12 6 4 7 10 6 7 8 11 7 6 7 15 18 19 24 13 2 3 6 4 8 4 10 16 24 28 29 34 42 45 39 32 30 30 28 31 30 33 34 33 31 30 27 27 28 29 29 26 25
36 35 23 19 11 5 7 9 5 4 6 6 7 5 10 6 8 8 15 5 8 10 5 8 16 20 20 21 23 23 25 29 30 33 32 36 32 30 29 29 29 29 29 30 30 30 28 27 27 29 27 26 24 22
43 34 9 4 5 6 8 8 6 4 1 2 4 5 4 3 6 10 6 7 8 7 9 18 21 27 33 29 26 25 21 23 26 25 27 25 25 25 25 26 26 25 24 24 28 30 30 28 30 28 26 23 22 22
16 14 10 8 12 5 4 5 5 3 4 3 3 5 4 5 7 5 5 6 14 7 16 24 23 26 22 19 17 16 15 16 18 20 22 24 25 24 22 23 24 23 24 26 27 31 32 34 31 30 26 26 25 24
5 6 6 5 6 5 3 3 5 6 3 3 5 6 4 9 4 5 5 11 13 18 21 20 18 16 18 18 16 15 15 12 14 17 18 22 24 24 23 21 20 19 22 24 29 33 36 35 36 33 30 30 30 28
10 17 14 7 10 8 9 5 4 8 7 6 7 9 8 4 5 8 5 18 17 24 25 22 21 18 15 14 14 10 8 8 10 12 18 22 23 24 24 22 20 20 23 24 25 32 36 37 35 35 33 31 34 32
4 8 4 3 3 4 9 11 9 7 7 7 6 4 4 5 6 6 6 7 10 13 17 17 16 13 15 13 12 10 10 11 8 12 18 19 20 19 20 18 15 11 18 22 24 27 32 33 32 30 31 31 31 33
7 13 14 17 17 14 8 7 7 7 6 5 2 4 4 6 6 6 3 2 14 15 19 20 16 11 11 11 10 8 8 10 12 14 15 15 16 18 17 13 11 15 16 18 19 20 22 24 25 25 27 29 28 29
8 8 8 15 13 12 14 10 8 9 8 6 6 7 7 9 9 12 13 14 16 14 13 12 11 14 15 15 11 8 7 8 15 18 18 18 20 18 18 17 12 13 16 15 17 20 20 19 19 21 22 22 23 26
9 12 21 21 10 10 11 12 17 18 23 25 25 29 27 20 14 15 14 15 15 15 13 12 10 8 9 10 10 11 12 13 16 17 16 14 19 19 19 20 17 15 15 13 15 18 20 20 22 18 18 20 26 26
8 19 24 25 19 20 16 14 16 20 21 24 21 23 21 14 11 11 10 10 9 7 6 4 1 4 5 6 7 9 10 12 18 16 10 9 15 18 15 16 15 14 14 17 17 16 16 19 23 21 20 22 21 16
9 10 16 18 19 13 12 13 16 17 15 16 15 12 9 7 6 4 1 2 1 1 4 1 0 2 3 7 8 4 6 9 18 20 13 11 10 9 13 15 17 16 15 16 15 12 13 17 19 20 19 19 21 23
18 20 19 13 8 8 8 8 9 12 12 11 10 9 7 5 5 3 1 1 3 3 5 5 6 5 7 9 11 17 18 16 15 13 12 11 11 12 10 9 10 13 16 18 16 18 16 14 19 23 24 23 23 24
Wind_Direction_850mb
260 260 257 258 255 260 249 255 266 263 259 234 233 244 248 245 228 219 219 220 221 231 250 257 254 252 259 262 269 341 249 225 216 232 233 233 236 217 227 233 214 212 208 223 232 241 241 161 167 206 166 139 160 176
254 255 259 257 250 252 251 252 261 257 245 237 232 240 249 257 236 226 225 216 238 235 251 234 245 245 249 259 270 260 272 307 279 236 231 246 231 237 221 230 196 237 231 240 212 239 117 184 206 202 173 165 172 177
255 252 249 249 250 247 249 247 250 245 242 236 240 245 245 240 229 230 230 220 229 243 271 253 253 251 252 249 238 248 249 263 258 338 324 290 255 227 222 232 207 219 202 222 187 217 204 196 201 203 193 188 180 175
256 254 252 248 247 248 244 243 239 237 233 237 240 239 242 242 229 223 230 222 225 238 258 265 253 249 251 242 237 243 247 248 268 300 276 271 243 269 259 241 218 205 174 214 225 202 193 208 206 203 192 182 168 167
257 256 255 251 246 244 240 236 233 234 230 235 233 234 243 238 231 226 240 226 222 217 263 269 269 254 247 248 240 236 232 233 231 230 210 228 249 342 278 270 209 187 197 203 226 223 212 220 200 190 180 170 167 162
259 258 254 250 250 235 237 229 227 230 227 225 228 229 236 243 227 226 255 235 220 223 248 261 263 256 255 248 250 233 225 215 209 245 212 203 246 258 216 221 203 201 204 216 236 223 198 175 182 183 179 172 166 163
258 255 249 250 233 237 224 220 219 223 221 224 228 228 235 239 213 206 216 185 202 208 222 256 252 247 245 237 250 232 207 208 211 219 285 210 201 258 265 236 182 200 202 198 179 155 159 163 171 179 173 164 158 157
254 252 247 230 228 219 210 208 211 215 214 219 223 228 236 238 230 237 210 186 178 192 224 249 260 259 197 206 212 209 193 178 197 180 185 267 144 208 240 229 181 185 191 196 195 199 211 189 165 163 161 156 153 154
250 235 226 219 212 205 198 203 204 203 204 207 215 218 225 222 225 236 227 221 227 196 170 224 230 243 182 222 217 186 151 126 140 185 200 234 199 211 219 204 198 197 194 198 192 187 183 172 166 162 162 162 160 158
219 216 211 201 199 187 196 198 198 195 191 198 194 195 221 216 208 191 173 196 221 225 220 246 238 235 188 182 235 176 159 154 174 212 174 229 239 223 208 198 204 198 199 191 181 182 179 175 170 168 169 169 169 165
208 197 203 195 181 191 192 190 185 178 185 187 196 220 213 198 191 199 189 193 173 205 209 231 225 221 219 185 225 197 162 168 209 170 208 193 229 215 216 205 194 189 188 190 191 186 181 175 170 165 163 164 165 164
187 177 175 180 186 186 188 183 179 181 185 197 204 218 188 195 202 208 189 167 204 215 190 212 199 197 198 188 222 190 165 205 198 146 195 218 194 194 193 196 187 176 179 185 185 175 172 171 168 160 158 158 160 159
181 178 176 180 182 183 179 179 184 189 192 194 222 217 191 209 234 227 183 189 212 202 199 179 162 171 202 201 166 183 189 143 139 181 215 222 164 170 168 171 170 165 161 156 156 159 160 156 156 158 156 158 159 157
166 170 172 172 173 173 176 185 188 183 184 204 211 198 221 186 237 228 244 225 189 239 187 184 157 204 190 116 200 109 71 149 201 204 227 177 158 149 150 161 157 153 147 146 147 151 155 157 157 157 159 160 159 160
172 173 173 175 177 171 176 185 180 184 189 243 223 233 218 248 287 284 287 267 243 247 172 129 165 162 73 98 207 132 169 200 229 233 101 128 148 151 151 156 156 155 151 150 153 158 160 160 158 156 158 160 162 160
173 169 177 175 174 172 173 170 177 185 222 247 231 258 245 251 263 237 227 234 207 191 147 220 93 86 126 183 183 200 175 207 298 161 118 133 134 138 148 149 152 157 161 160 161 162 161 162 162 158 156 160 162 163
163 164 176 171 161 161 166 158 174 196 235 239 235 240 254 268 265 277 220 209 170 157 110 127 89 120 156 203 190 188 201 110 124 115 135 137 130 127 135 143 148 153 157 160 163 164 164 162 159 155 156 159 163 167
154 153 159 162 161 156 163 187 183 209 238 250 258 263 242 263 278 298 201 173 153 127 167 166 147 188 168 167 177 161 138 118 115 127 135 131 126 123 126 131 138 147 152 154 154 153 156 157 156 156 156 160 164 169
150 151 152 152 155 150 149 190 220 252 246 270 270 273 260 262 291 278 114 141 144 98 103 40 9 62 59 14 359 128 133 133 130 131 131 130 127 127 127 128 130 135 140 145 147 150 153 155 159 161 165 165 166 168
147 149 151 152 152 176 167 184 196 255 265 269 277 283 270 8 29 135 117 117 105 48 38 21 13 350 4 19 88 128 132 137 134 133 133 133 134 134 137 137 137 140 142 144 146 150 154 157 165 167 169 173 176 181
139 148 165 175 203 287 243 209 217 244 268 270 301 317 55 97 128 116 109 109 58 58 156 240 204 226 232 96 103 116 121 135 148 149 147 142 143 143 143 147 146 148 152 154 155 157 161 164 165 168 171 175 181 184
151 153 158 182 216 265 259 235 222 241 226 262 324 56 81 356 57 62 107 84 104 167 190 111 118 115 106 98 105 113 124 134 138 141 145 148 149 152 153 155 157 163 169 172 171 170 169 167 168 169 170 173 179 182
169 185 204 224 231 242 255 209 210 221 199 233 28 62 58 58 71 67 72 17 123 165 100 120 114 115 110 108 111 112 116 122 136 147 153 159 161 161 163 167 170 170 173 180 188 184 183 178 175 176 181 184 187 193
164 177 211 217 205 259 222 205 211 157 175 190 127 108 100 102 78 82 80 142 161 169 140 133 124 116 109 111 109 112 122 137 147 155 168 170 171 174 179 183 188 193 196 193 191 195 193 192 192 195 198 199 199 201
189 204 201 228 227 225 200 193 189 209 88 93 107 96 127 160 137 66 79 115 146 171 155 144 139 133 125 124 121 119 116 130 156 161 170 181 183 180 184 187 193 197 195 196 198 199 199 198 199 202 204 205 206 208
213 194 190 216 190 199 170 142 109 116 118 98 82 127 174 139 101 101 111 161 166 168 163 153 144 133 128 127 126 128 142 128 135 164 180 179 178 181 185 189 193 204 207 201 197 197 197 201 205 209 213 213 216 221
11 42 20 346 13 127 109 87 95 83 73 86 105 126 136 83 79 72 79 90 127 144 161 159 156 150 142 134 120 113 134 141 123 114 138 149 161 169 167 169 175 178 188 187 191 195 198 201 205 210 215 215 218 223
16 20 63 67 74 56 64 54 45 49 61 45 97 58 63 41 75 69 63 153 160 155 161 171 166 151 149 147 143 136 131 157 164 145 150 150 157 163 164 158 160 150 155 163 171 177 183 190 197 208 213 217 225 233
57 31 29 63 71 56 36 29 49 46 11 17 75 65 80 69 83 90 77 95 125 134 146 156 175 191 183 183 178 182 184 185 189 188 189 186 182 185 183 182 178 175 176 193 188 187 198 207 218 219 221 229 236 241
48 40 78 69 66 55 43 53 71 66 69 78 97 106 102 99 86 76 84 101 110 114 123 131 144 164 195 203 216 227 226 214 207 213 204 204 199 189 186 188 190 192 194 201 202 206 201 219 226 229 228 248 245 251
75 86 80 83 82 80 88 81 77 81 82 82 91 102 103 111 99 78 85 91 96 110 125 121 152 225 234 230 221 218 219 218 202 195 174 168 180 181 182 189 198 202 203 205 204 209 221 227 233 243 240 232 244 246
79 97 109 105 97 89 90 81 78 84 86 92 89 96 107 124 99 100 67 43 64 238 267 275 19 172 168 167 155 128 137 165 177 175 176 174 175 198 212 210 215 216 206 203 209 224 241 236 235 233 234 241 250 256
92 103 108 107 107 113 102 94 84 86 86 82 67 58 55 40 71 94 319 175 156 129 121 137 123 125 139 121 133 119 114 128 144 159 171 182 198 184 181 194 205 211 210 218 245 228 237 250 246 246 251 257 259 263